Regional Weather Roundup
Issued by NWS

Home | Current Version | Previous Version | Graphics & Text | Print | Product List | Glossary On
Versions: 1 2 3 4 5 6 7 8 9 10 11 12 13 14 15 16 17 18 19 20 21 22 23 24 25 26 27 28 29 30 31 32 33 34 35 36 37 38 39 40 41 42 43 44 45 46 47 48 49 50
000
ASUS44 KMEG 300810
RWRTN
TENNESSEE HOURLY STATE WEATHER ROUNDUP
NATIONAL WEATHER SERVICE MEMPHIS TN
300 AM CDT FRI SEP 30 2016

TNZ002-004-019-021-049-052-054-088>092-300900-
WEST TENNESSEE

CITY           SKY/WX    TMP DP  RH WIND       PRES   REMARKS
MEMPHIS INTL   CLOUDY    62  56  80 NW3       30.11S
NWS MEMPHIS      N/A     56 N/A N/A MISG        N/A
JACKSON          N/A    N/A N/A N/A MISG      30.10S
DYERSBURG      CLOUDY   N/A N/A N/A MISG        N/A
UNION CITY     CLOUDY    57  57 100 N5        30.08S
PARIS          CLOUDY    54  54 100 CALM      30.08F VSB 1
HUNTINGDON     CLOUDY    55  55 100 CALM      30.07F FOG
LEXINGTON      PTCLDY    46  46 100 CALM      30.08S
$$

TNZ008-025-027-028-033-062-065-066-300900-
NORTH MIDDLE TENNESSEE

CITY           SKY/WX    TMP DP  RH WIND       PRES   REMARKS
NASHVILLE      PTCLDY    50  48  93 CALM      30.06F
PORTLAND       CLOUDY    50  50 100 CALM      30.05F FOG
CLARKSVILLE    CLOUDY    56  54  93 NW5       30.06S
SMYRNA         PTCLDY    48  47  96 SE5       30.07F FOG
COOKEVILLE     CLOUDY    52  52 100 CALM      30.04F
GALLATIN       FOG       48  48 100 CALM      30.08F VSB 1/4
CROSSVILLE     FOG       47  46  97 NW5       30.05F VSB 1/4
$$

TNZ061-075-076-078-094-096-097-300900-
SOUTH MIDDLE TENNESSEE

CITY           SKY/WX    TMP DP  RH WIND       PRES   REMARKS
FAYETTEVILLE   MOCLDY    48  48 100 CALM      30.06F FOG
TULLAHOMA        N/A     45  43  93 CALM      30.06F VSB 1/2
WINCHESTER     CLOUDY    48  48 100 CALM      30.06F
MCMINNVILLE    PTCLDY    50  50 100 W3        30.06S
COLUMBIA       PTCLDY   N/A N/A N/A CALM      30.06S
SHELBYVILLE    CLOUDY    46  46 100 CALM      30.07F VSB 0
$$

TNZ017-018-042-046-047-300900-
NORTHEAST TENNESSEE

CITY           SKY/WX    TMP DP  RH WIND       PRES   REMARKS
TRI CITIES     CLOUDY    56  54  93 CALM      30.01F
ELIZABETHTON     N/A     55  54  94 CALM      30.01F
$$

TNZ012-013-036-069-073-074-300900-
CENTRAL EAST TENNESSEE

CITY           SKY/WX    TMP DP  RH WIND       PRES   REMARKS
KNOXVILLE      CLEAR     52  47  83 CALM      30.02F
OAK RIDGE      CLEAR     50  46  86 CALM      30.05F
DOWNTOWN KNOXV PTCLDY    50  50 100 CALM      30.04S
GATLINBURG     CLOUDY    57  48  72 W3        30.02S
MORRISTOWN     CLOUDY    55  52  88 CALM      30.01F
JACKSBORO      CLEAR     45  45 100 CALM      30.06F
$$

TNZ083-085-099-300900-
SOUTHEAST TENNESSEE

CITY           SKY/WX    TMP DP  RH WIND       PRES   REMARKS
CHATTANOOGA    CLEAR     54  49  83 CALM      30.04F
$$

SKY/WX REPORTED AS FAIR MEANS FEW OR NO CLOUDS BELOW
12 THOUSAND FEET.





USA.gov is the U.S. government's official web portal to all federal, state and local government web resources and services.